CW9792 Weather Reports


time (UTC)temp
C
wind
direction
speed
KPH
gust
KPH
rain 1hr
cm
rain 24hr
cm
rain mn
cm
humidity
%
barometer
mb
20260507225549 16 316 0.0 0.0 0.00 0.00 0.00 24 1014.7
20260507225047 16 258 0.0 0.0 0.00 0.00 0.00 24 1014.8
20260507224602 16 286 0.0 0.0 0.00 0.00 0.00 25 1014.8
20260507224047 16 305 0.0 0.0 0.00 0.00 0.00 26 1014.8
20260507223547 16 293 0.0 0.0 0.00 0.00 0.00 23 1014.8
20260507223053 16 286 0.0 0.0 0.00 0.00 0.00 25 1014.9
20260507222549 16 355 0.0 0.0 0.00 0.00 0.00 22 1014.9
20260507222045 17 22 0.0 0.0 0.00 0.00 0.00 22 1014.9
20260507221545 17 326 0.0 0.0 0.00 0.00 0.00 22 1014.8
20260507221046 17 343 0.0 0.0 0.00 0.00 0.00 21 1014.8
20260507220546 17 336 0.0 1.6 0.00 0.00 0.00 23 1014.6
20260507220045 16 266 0.0 1.6 0.00 0.00 0.00 22 1014.6
20260507215549 16 302 0.0 0.0 0.00 0.00 0.00 24 1014.6
20260507215045 16 349 0.0 0.0 0.00 0.00 0.00 23 1014.6
20260507214547 16 15 0.0 0.0 0.00 0.00 0.00 23 1014.5
20260507214046 17 344 0.0 1.6 0.00 0.00 0.00 24 1014.7
20260507213543 16 343 0.0 1.6 0.00 0.00 0.00 23 1014.6
20260507213043 16 16 0.0 0.0 0.00 0.00 0.00 23 1014.7
20260507212542 17 355 0.0 0.0 0.00 0.00 0.00 23 1014.7
20260507212045 17 10 0.0 0.0 0.00 0.00 0.00 25 1014.7
20260507211554 16 14 0.0 0.0 0.00 0.00 0.00 23 1014.8
20260507211042 16 5 0.0 6.4 0.00 0.00 0.00 21 1014.8
20260507210542 17 343 0.0 6.4 0.00 0.00 0.00 22 1014.8
20260507210042 17 5 0.0 0.0 0.00 0.00 0.00 23 1014.8
20260507205541 16 313 0.0 0.0 0.00 0.00 0.00 22 1014.8
20260507205040 16 302 0.0 0.0 0.00 0.00 0.00 26 1014.8
20260507204540 16 355 0.0 0.0 0.00 0.00 0.00 23 1014.8
20260507204041 16 341 0.0 0.0 0.00 0.00 0.00 22 1014.7
20260507203539 16 5 0.0 0.0 0.00 0.00 0.00 24 1014.8
20260507203041 16 27 0.0 0.0 0.00 0.00 0.00 23 1014.8
20260507202538 16 9 0.0 0.0 0.00 0.00 0.00 24 1014.8
20260507202038 16 333 0.0 0.0 0.00 0.00 0.00 25 1014.8
20260507201538 16 5 0.0 0.0 0.00 0.00 0.00 25 1014.9
20260507201040 16 289 0.0 0.0 0.00 0.00 0.00 26 1014.9
20260507200537 16 349 0.0 0.0 0.00 0.00 0.00 22 1015.0
20260507200038 16 360 0.0 0.0 0.00 0.00 0.00 23 1015.0
20260507195537 16 344 0.0 0.0 0.00 0.00 0.00 27 1015.1
20260507195036 16 12 0.0 0.0 0.00 0.00 0.00 23 1015.1
20260507194539 16 9 0.0 0.0 0.00 0.00 0.00 24 1015.1
20260507194038 16 5 0.0 0.0 0.00 0.00 0.00 22 1015.1
20260507193535 16 345 0.0 0.0 0.00 0.00 0.00 24 1015.1
20260507193036 17 348 0.0 0.0 0.00 0.00 0.00 21 1015.2
20260507192534 16 336 0.0 0.0 0.00 0.00 0.00 24 1015.3
20260507192133 16 305 0.0 0.0 0.00 0.00 0.00 22 1015.2
20260507191534 16 5 0.0 0.0 0.00 0.00 0.00 24 1015.3
20260507191032 16 21 0.0 0.0 0.00 0.00 0.00 23 1015.3
20260507190532 16 311 0.0 0.0 0.00 0.00 0.00 25 1015.4
20260507190036 15 340 0.0 0.0 0.00 0.00 0.00 22 1015.5
20260507185532 16 9 0.0 0.0 0.00 0.00 0.00 20 1015.4
20260507185032 16 331 0.0 1.6 0.00 0.00 0.00 22 1015.4
20260507184530 15 307 0.0 1.6 0.00 0.00 0.00 27 1015.4
20260507184030 15 360 0.0 0.0 0.00 0.00 0.00 23 1015.4
20260507183529 15 349 0.0 0.0 0.00 0.00 0.00 21 1015.4
20260507183029 15 350 0.0 0.0 0.00 0.00 0.00 19 1015.4
20260507182528 15 298 0.0 0.0 0.00 0.00 0.00 23 1015.5
20260507182029 15 355 0.0 0.0 0.00 0.00 0.00 21 1015.6
20260507181527 15 346 0.0 0.0 0.00 0.00 0.00 22 1015.6
20260507181028 15 343 0.0 0.0 0.00 0.00 0.00 21 1015.7
20260507180527 15 316 0.0 0.0 0.00 0.00 0.00 27 1015.6
20260507180026 15 355 0.0 0.0 0.00 0.00 0.00 21 1015.6
20260507175528 14 17 0.0 0.0 0.00 0.00 0.00 20 1015.7
20260507175026 14 346 0.0 0.0 0.00 0.00 0.00 22 1015.8
20260507174524 14 351 0.0 0.0 0.00 0.00 0.00 22 1015.8
20260507174024 14 351 0.0 0.0 0.00 0.00 0.00 22 1016.0
20260507173524 15 348 0.0 0.0 0.00 0.00 0.00 23 1016.0
20260507173027 15 5 0.0 0.0 0.00 0.00 0.00 23 1016.0
20260507172525 15 323 0.0 0.0 0.00 0.00 0.00 24 1016.1
20260507172024 14 328 0.0 4.8 0.00 0.00 0.00 24 1016.2
20260507171523 15 296 0.0 4.8 0.00 0.00 0.00 27 1016.2
20260507171022 14 290 0.0 4.8 0.00 0.00 0.00 28 1016.2
20260507170522 13 9 0.0 0.0 0.00 0.00 0.00 24 1016.4
20260507170022 13 342 0.0 0.0 0.00 0.00 0.00 24 1016.5
20260507165520 13 323 0.0 0.0 0.00 0.00 0.00 25 1016.6
20260507165023 13 351 0.0 0.0 0.00 0.00 0.00 28 1016.6
20260507164520 13 344 0.0 0.0 0.00 0.00 0.00 26 1016.7
20260507164019 13 345 0.0 0.0 0.00 0.00 0.00 27 1016.7
20260507163520 13 20 0.0 0.0 0.00 0.00 0.00 30 1016.7
20260507163023 13 335 0.0 0.0 0.00 0.00 0.00 29 1016.8
20260507162519 13 5 0.0 0.0 0.00 0.00 0.00 28 1016.9
20260507162023 13 355 0.0 0.0 0.00 0.00 0.00 30 1016.8
20260507161519 13 346 0.0 0.0 0.00 0.00 0.00 28 1016.9
20260507161018 13 340 0.0 0.0 0.00 0.00 0.00 29 1016.8
20260507160518 13 282 0.0 0.0 0.00 0.00 0.00 32 1016.8
20260507160017 13 292 0.0 0.0 0.00 0.00 0.00 29 1016.8
20260507155516 13 317 0.0 0.0 0.00 0.00 0.00 31 1016.9
20260507155015 13 347 0.0 0.0 0.00 0.00 0.00 31 1016.9
20260507154515 13 323 0.0 0.0 0.00 0.00 0.00 31 1016.9
20260507154014 13 340 0.0 0.0 0.00 0.00 0.00 31 1017.0
20260507153513 13 360 0.0 0.0 0.00 0.00 0.00 31 1016.9
20260507153012 13 360 0.0 0.0 0.00 0.00 0.00 32 1016.9
20260507152512 12 331 0.0 0.0 0.00 0.00 0.00 35 1016.9
20260507152011 12 325 0.0 0.0 0.00 0.00 0.00 34 1016.9
20260507151511 12 360 0.0 0.0 0.00 0.00 0.00 34 1016.8
20260507151009 12 5 0.0 1.6 0.00 0.00 0.00 35 1016.8
20260507150513 12 360 0.0 1.6 0.00 0.00 0.00 34 1016.8
20260507150012 12 348 0.0 0.0 0.00 0.00 0.00 37 1016.8
20260507145508 12 23 0.0 0.0 0.00 0.00 0.00 36 1016.9
20260507145008 12 15 0.0 0.0 0.00 0.00 0.00 36 1016.8
20260507144507 12 355 0.0 0.0 0.00 0.00 0.00 35 1016.8
20260507144006 12 355 0.0 0.0 0.00 0.00 0.00 37 1016.9
20260507143504 11 25 0.0 0.0 0.00 0.00 0.00 38 1016.9
20260507143004 11 13 0.0 0.0 0.00 0.00 0.00 38 1016.9
20260507142505 11 360 0.0 0.0 0.00 0.00 0.00 37 1016.9
20260507142004 11 360 0.0 0.0 0.00 0.00 0.00 36 1016.9
20260507141504 11 11 0.0 0.0 0.00 0.00 0.00 39 1016.9
20260507141002 11 17 0.0 0.0 0.00 0.00 0.00 39 1016.8
20260507140502 11 360 0.0 0.0 0.00 0.00 0.00 37 1016.8
20260507140112 11 16 0.0 0.0 0.00 0.00 0.00 39 1016.7
20260507135559 11 19 0.0 0.0 0.00 0.00 0.00 38 1016.7
20260507135103 11 5 0.0 0.0 0.00 0.00 0.00 40 1016.8
20260507134559 10 10 0.0 0.0 0.00 0.00 0.00 40 1016.8
20260507134058 10 26 0.0 0.0 0.00 0.00 0.00 43 1017.0
20260507133557 10 13 0.0 0.0 0.00 0.00 0.00 45 1016.8
20260507133056 10 5 0.0 0.0 0.00 0.00 0.00 48 1016.7
20260507132557 10 355 0.0 0.0 0.00 0.00 0.00 48 1016.7
20260507132056 10 13 0.0 0.0 0.00 0.00 0.00 49 1016.8
20260507131600 10 22 0.0 0.0 0.00 0.00 0.00 49 1016.8
20260507131055 9 9 0.0 0.0 0.00 0.00 0.00 51 1016.7
20260507130554 9 5 0.0 0.0 0.00 0.00 0.00 53 1016.7
20260507130053 8 355 0.0 0.0 0.00 0.00 0.00 53 1016.7
20260507125554 8 10 0.0 0.0 0.00 0.00 0.00 55 1016.8
20260507125053 8 355 0.0 0.0 0.00 0.00 0.00 55 1016.7
20260507124552 8 355 0.0 0.0 0.00 0.00 0.00 55 1016.7
20260507124052 8 355 0.0 0.0 0.00 0.00 0.00 55 1016.7
20260507123552 8 355 0.0 0.0 0.00 0.00 0.00 56 1016.7
20260507123054 7 355 0.0 0.0 0.00 0.00 0.00 56 1016.7
20260507122550 7 355 0.0 0.0 0.00 0.00 0.00 57 1016.6
20260507122051 7 355 0.0 0.0 0.00 0.00 0.00 57 1016.6
20260507121551 7 355 0.0 0.0 0.00 0.00 0.00 57 1016.7
20260507121051 7 355 0.0 0.0 0.00 0.00 0.00 57 1016.7
20260507120550 7 355 0.0 0.0 0.00 0.00 0.00 57 1016.7
20260507120051 7 355 0.0 0.0 0.00 0.00 0.00 58 1016.7
20260507115551 7 355 0.0 0.0 0.00 0.00 0.00 58 1016.8
20260507115050 7 355 0.0 0.0 0.00 0.00 0.00 59 1016.8
20260507114550 6 355 0.0 0.0 0.00 0.00 0.00 59 1016.8
20260507114050 6 355 0.0 0.0 0.00 0.00 0.00 59 1016.8
20260507113550 6 355 0.0 0.0 0.00 0.00 0.00 59 1016.8
20260507113049 6 355 0.0 0.0 0.00 0.00 0.00 59 1016.7
20260507112549 6 355 0.0 0.0 0.00 0.00 0.00 59 1016.7
20260507112049 6 355 0.0 0.0 0.00 0.00 0.00 60 1016.7
20260507111548 6 355 0.0 0.0 0.00 0.00 0.00 60 1016.7
20260507111048 6 355 0.0 0.0 0.00 0.00 0.00 60 1016.7
20260507110546 6 355 0.0 0.0 0.00 0.00 0.00 61 1016.6
20260507110050 6 355 0.0 0.0 0.00 0.00 0.00 61 1016.6
20260507105545 6 355 0.0 0.0 0.00 0.00 0.00 61 1016.6
20260507105045 6 355 0.0 0.0 0.00 0.00 0.00 61 1016.5
20260507104545 6 355 0.0 0.0 0.00 0.00 0.00 61 1016.5
20260507104044 6 355 0.0 0.0 0.00 0.00 0.00 62 1016.4
20260507103541 6 355 0.0 0.0 0.00 0.00 0.00 62 1016.3
20260507103042 6 355 0.0 0.0 0.00 0.00 0.00 62 1016.2
20260507102541 6 355 0.0 0.0 0.00 0.00 0.00 63 1016.1
20260507102040 6 355 0.0 0.0 0.00 0.00 0.00 63 1016.2
20260507101557 6 355 0.0 0.0 0.00 0.00 0.00 64 1016.1
20260507101039 6 355 0.0 0.0 0.00 0.00 0.00 64 1016.1
20260507100539 6 355 0.0 0.0 0.00 0.00 0.00 64 1015.9
20260507100039 6 355 0.0 0.0 0.00 0.00 0.00 64 1016.0
20260507095539 6 355 0.0 0.0 0.00 0.03 0.00 65 1016.0
20260507095038 6 355 0.0 0.0 0.00 0.03 0.00 65 1016.0
20260507094543 6 355 0.0 0.0 0.00 0.03 0.00 64 1015.9
20260507094041 6 355 0.0 0.0 0.00 0.03 0.00 64 1015.9
20260507093537 6 355 0.0 0.0 0.00 0.03 0.00 64 1015.8
20260507093036 6 355 0.0 0.0 0.00 0.03 0.00 64 1015.8
20260507092536 6 355 0.0 0.0 0.00 0.03 0.00 64 1015.8
20260507092034 6 355 0.0 0.0 0.00 0.03 0.00 64 1015.8
20260507091551 6 355 0.0 0.0 0.00 0.03 0.00 64 1015.7
20260507091033 6 355 0.0 0.0 0.00 0.03 0.00 64 1015.7
20260507090533 6 355 0.0 0.0 0.00 0.03 0.00 64 1015.7
20260507090033 6 355 0.0 0.0 0.00 0.03 0.00 64 1015.6
20260507085532 7 355 0.0 0.0 0.00 0.13 0.00 63 1015.6
20260507085032 7 355 0.0 0.0 0.00 0.13 0.00 63 1015.6
20260507084530 7 355 0.0 0.0 0.00 0.13 0.00 63 1015.5
20260507084030 7 355 0.0 0.0 0.00 0.13 0.00 63 1015.6
20260507083530 7 355 0.0 0.0 0.00 0.13 0.00 63 1015.4
20260507083031 7 355 0.0 0.0 0.00 0.13 0.00 63 1015.4
20260507082530 7 355 0.0 0.0 0.00 0.13 0.00 63 1015.4
20260507082029 7 355 0.0 0.0 0.00 0.13 0.00 63 1015.4
20260507081540 7 355 0.0 0.0 0.00 0.13 0.00 63 1015.4
20260507081029 7 355 0.0 0.0 0.00 0.13 0.00 63 1015.4
20260507080527 7 355 0.0 0.0 0.00 0.13 0.00 62 1015.4
20260507080028 7 355 0.0 0.0 0.00 0.13 0.00 63 1015.5
20260507075527 7 355 0.0 0.0 0.00 0.13 0.00 63 1015.5
20260507075027 7 355 0.0 0.0 0.00 0.13 0.00 63 1015.4
20260507074530 7 355 0.0 0.0 0.00 0.13 0.00 63 1015.4
20260507074025 7 355 0.0 0.0 0.00 0.13 0.00 63 1015.3
20260507073525 7 355 0.0 0.0 0.00 0.13 0.00 63 1015.1
20260507073024 7 355 0.0 0.0 0.00 0.13 0.00 62 1015.2
20260507072524 8 355 0.0 0.0 0.00 0.13 0.00 62 1015.2
20260507072025 8 355 0.0 0.0 0.00 0.13 0.00 63 1015.0
20260507071523 8 355 0.0 0.0 0.00 0.13 0.00 63 1015.2
20260507071022 8 355 0.0 0.0 0.00 0.13 0.00 63 1015.2
20260507070522 8 355 0.0 0.0 0.00 0.13 0.00 63 1015.2
20260507070022 8 355 0.0 0.0 0.00 0.13 0.00 63 1015.3
20260507065519 8 355 0.0 0.0 0.00 0.30 0.00 63 1015.4
20260507065019 8 355 0.0 0.0 0.00 0.30 0.00 63 1015.3
20260507064519 8 355 0.0 0.0 0.00 0.30 0.00 62 1015.4
20260507064018 8 355 0.0 0.0 0.00 0.30 0.00 62 1015.1
20260507063518 9 355 0.0 0.0 0.00 0.30 0.00 62 1015.3
20260507063016 9 355 0.0 0.0 0.00 0.30 0.00 62 1015.4
20260507062517 9 355 0.0 0.0 0.00 0.30 0.00 62 1015.5
20260507062015 9 355 0.0 0.0 0.00 0.30 0.00 62 1015.4
20260507061528 9 355 0.0 0.0 0.00 0.30 0.00 61 1015.5
20260507061014 9 355 0.0 0.0 0.00 0.30 0.00 61 1015.3
20260507060513 9 355 0.0 0.0 0.00 0.30 0.00 60 1015.4
20260507060012 10 355 0.0 0.0 0.00 0.30 0.00 60 1015.2
20260507055512 10 355 0.0 0.0 0.00 0.38 0.00 60 1015.5
20260507055012 10 355 0.0 0.0 0.00 0.38 0.00 59 1015.5
20260507054511 10 355 0.0 0.0 0.00 0.38 0.00 59 1015.7
20260507054011 10 355 0.0 0.0 0.00 0.38 0.00 59 1015.5
20260507053511 10 355 0.0 0.0 0.00 0.38 0.00 59 1015.5
20260507053015 10 355 0.0 0.0 0.00 0.38 0.00 59 1015.5
20260507052512 10 355 0.0 0.0 0.00 0.38 0.00 59 1015.6
20260507052010 10 355 0.0 0.0 0.00 0.38 0.00 59 1015.5
20260507051510 10 355 0.0 0.0 0.00 0.38 0.00 59 1015.4
20260507051010 10 355 0.0 0.0 0.00 0.38 0.00 59 1015.4
20260507050509 10 355 0.0 0.0 0.00 0.38 0.00 59 1015.5
20260507050018 10 355 0.0 0.0 0.00 0.38 0.00 59 1015.6
20260507045508 10 355 0.0 0.0 0.00 0.66 0.00 59 1015.5
20260507045007 10 355 0.0 0.0 0.00 0.66 0.00 59 1015.4
20260507044513 10 355 0.0 0.0 0.00 0.66 0.00 60 1015.2
20260507044004 10 355 0.0 0.0 0.00 0.66 0.00 59 1015.1
20260507043504 10 355 0.0 0.0 0.00 0.66 0.00 59 1015.0
20260507043003 10 355 0.0 0.0 0.00 0.66 0.00 58 1015.0
20260507042502 11 355 0.0 0.0 0.00 0.66 0.00 57 1015.0
20260507042002 11 355 0.0 0.0 0.00 0.66 0.00 57 1015.1
20260507041501 11 355 0.0 0.0 0.00 0.66 0.00 57 1015.3
20260507041101 11 339 0.0 0.0 0.00 0.66 0.00 58 1015.3
20260507040603 11 339 0.0 0.0 0.00 0.66 0.00 58 1015.3
20260507040059 11 327 0.0 0.0 0.00 0.66 0.00 57 1015.3
20260507035559 11 327 0.0 0.0 0.00 0.69 0.66 57 1015.5
20260507035059 11 326 0.0 0.0 0.00 0.69 0.66 57 1015.5
20260507034603 11 326 0.0 0.0 0.00 0.69 0.66 56 1015.4
20260507034058 11 326 0.0 0.0 0.00 0.69 0.66 56 1015.6
20260507033558 11 326 0.0 0.0 0.00 0.69 0.66 55 1015.4
20260507033059 11 326 0.0 0.0 0.00 0.69 0.66 55 1015.5
20260507032558 11 326 0.0 0.0 0.00 0.69 0.66 55 1015.6
20260507032057 11 326 0.0 0.0 0.00 0.69 0.66 55 1015.6
20260507031557 11 326 0.0 0.0 0.00 0.69 0.66 54 1015.6
20260507031100 11 326 0.0 0.0 0.00 0.69 0.66 55 1015.7
20260507030555 11 326 0.0 0.0 0.00 0.69 0.66 55 1015.8
20260507030106 11 343 0.0 0.0 0.00 0.69 0.66 55 1015.6
20260507025555 11 343 0.0 0.0 0.00 0.79 0.66 55 1015.7
20260507025055 11 343 0.0 0.0 0.00 0.79 0.66 57 1015.6
20260507024602 11 343 0.0 0.0 0.00 0.79 0.66 56 1015.5
20260507024057 11 343 0.0 0.0 0.00 0.79 0.66 57 1015.6
20260507023556 11 343 0.0 0.0 0.00 0.79 0.66 58 1015.5
20260507023053 11 343 0.0 0.0 0.00 0.79 0.66 58 1015.4
20260507022553 11 343 0.0 0.0 0.00 0.79 0.66 58 1015.5
20260507022052 11 343 0.0 0.0 0.00 0.79 0.66 57 1015.3
20260507021612 11 343 0.0 0.0 0.00 0.79 0.66 56 1015.2
20260507021051 11 343 0.0 0.0 0.00 0.79 0.66 56 1015.1
20260507020550 11 343 0.0 0.0 0.00 0.79 0.66 56 1014.9
20260507020058 11 343 0.0 0.0 0.00 0.79 0.66 56 1014.9
20260507015547 12 343 0.0 0.0 0.00 0.84 0.66 56 1014.7
20260507015050 12 343 0.0 0.0 0.00 0.84 0.66 55 1014.6
20260507014607 12 343 0.0 0.0 0.00 0.84 0.66 54 1014.6
20260507014046 12 343 0.0 0.0 0.00 0.84 0.66 54 1014.4
20260507013547 12 343 0.0 0.0 0.00 0.84 0.66 54 1014.5
20260507013049 12 343 0.0 0.0 0.00 0.84 0.66 53 1014.4
20260507012545 12 343 0.0 0.0 0.00 0.84 0.66 53 1014.2
20260507012044 12 343 0.0 0.0 0.00 0.84 0.66 53 1014.2
20260507011545 12 340 0.0 0.0 0.00 0.84 0.66 53 1014.3
20260507011044 12 340 0.0 0.0 0.00 0.84 0.66 53 1014.3
20260507010548 12 340 0.0 0.0 0.00 0.84 0.66 53 1014.2
20260507010054 12 331 0.0 0.0 0.00 0.84 0.66 53 1014.1
20260507005544 12 331 0.0 0.0 0.00 0.86 0.66 53 1014.2
20260507005045 13 331 0.0 0.0 0.00 0.86 0.66 53 1014.3
20260507004547 13 331 0.0 0.0 0.00 0.86 0.66 53 1014.0
20260507004044 13 331 0.0 0.0 0.00 0.86 0.66 53 1014.2
20260507003544 13 331 0.0 0.0 0.00 0.86 0.66 53 1014.2
20260507003043 13 331 0.0 0.0 0.00 0.86 0.66 52 1014.1
20260507002544 13 331 0.0 0.0 0.00 0.86 0.66 51 1014.1
20260507002045 13 331 0.0 0.0 0.00 0.86 0.66 51 1014.2
20260507001543 13 331 0.0 0.0 0.00 0.86 0.66 51 1014.3
20260507001042 13 331 0.0 0.0 0.00 0.86 0.66 51 1014.3
20260507000542 13 331 0.0 0.0 0.00 0.86 0.66 52 1014.2
20260507000044 13 331 0.0 0.0 0.00 0.86 0.66 52 1014.2
20260506235542 13 331 0.0 0.0 0.00 0.91 0.66 50 1014.2
20260506235041 13 331 0.0 0.0 0.00 0.91 0.66 50 1014.1
20260506234541 13 331 0.0 0.0 0.00 0.91 0.66 50 1014.0
20260506234041 13 331 0.0 0.0 0.00 0.91 0.66 49 1013.9
20260506233541 14 331 0.0 0.0 0.00 0.91 0.66 48 1013.9
20260506233040 14 331 0.0 0.0 0.00 0.91 0.66 49 1013.8
20260506232540 14 331 0.0 0.0 0.00 0.91 0.66 48 1013.4
20260506232141 14 331 0.0 0.0 0.00 0.91 0.66 47 1013.6
20260506231540 14 336 0.0 0.0 0.00 0.91 0.66 46 1013.7
20260506231044 14 346 0.0 0.0 0.00 0.91 0.66 45 1013.7
20260506230544 14 360 0.0 0.0 0.00 0.91 0.66 44 1013.8
20260506230042 14 5 0.0 0.0 0.00 0.91 0.66 44 1014.0